Willmar, MN

7:47 PM CST on December 17, 2017 (GMT -0600)
Willmar

Weather History for KBDH - July, 2013

Change the Weather History Date:

Saturday, July 13, 2013

  Actual Average (KBBB) Record (KBBB)
Temperature  
Mean Temperature 74 °F -  
Max Temperature 78 °F 84 °F 98 °F (1976)
Min Temperature 71 °F 62 °F 42 °F (2007)
Cooling Degree Days 10    
Growing Degree Days 24 (Base 50)    
Moisture  
Dew Point 64 °F    
Average Humidity 69    
Maximum Humidity 78    
Minimum Humidity 61    
Precipitation  
Precipitation 0.12 in - - ()
Sea Level Pressure  
Sea Level Pressure 29.97 in    
Wind  
Wind Speed 10 mph (SE)    
Max Wind Speed 20 mph    
Max Gust Speed 25 mph    
Visibility 10 miles    
Events Rain , Thunderstorm    
Averages and records for this station are not official NWS values.
T = Trace of Precipitation, MM = Missing Value Source: NWS Daily Summary

Daily Weather History Graph

Daily Weather History Graph

Search for Another Location

Airport or City:

Trip Planner

Search our weather history database for the weather conditions in past years. The results will help you decide how hot, cold, wet, or windy it might be!

Date:

Astronomy

Jul. 13, 2013 Rise Set
Actual Time 5:46 AM CDT 9:05 PM CDT
Civil Twilight 5:09 AM CDT 9:42 PM CDT
Nautical Twilight 4:22 AM CDT 10:29 PM CDT
Astronomical Twilight 3:23 AM CDT 11:28 PM CDT
Moon 11:20 AM CDT (7/13) 11:28 PM CDT (7/13)
Length of Visible Light 16h 32m
Length of Day
15h 19m
Waxing Crescent, 26% of the Moon is Illuminated
Jul 13
Waxing Crescent
Jul 15
First Quarter
Jul 22
Full
Jul 29
Last Quarter
Aug 6
New

Hourly Weather History & Observations

Time (CDT) Temp. Dew Point Humidity Pressure Visibility Wind Dir Wind Speed Gust Speed Precip Events Conditions
12:16 AM 75.2 °F 64.4 °F 69% 29.89 in 7.0 mi SSE 9.2 mph - 0.11 in Rain , Thunderstorm Heavy Thunderstorms and Rain
12:35 AM 75.2 °F 64.4 °F 69% 29.90 in 10.0 mi SSE 5.8 mph - 0.12 in   Mostly Cloudy
12:55 AM 77.0 °F 64.4 °F 65% 29.89 in 10.0 mi SSE 6.9 mph - 0.12 in   Mostly Cloudy
1:15 AM 75.2 °F 64.4 °F 69% 29.89 in 10.0 mi SE 6.9 mph - N/A   Scattered Clouds
1:35 AM 75.2 °F 64.4 °F 69% 29.89 in 10.0 mi SE 5.8 mph - N/A   Clear
1:55 AM 75.2 °F 64.4 °F 69% 29.90 in 10.0 mi SSE 5.8 mph - N/A   Clear
2:15 AM 75.2 °F 64.4 °F 69% 29.90 in 10.0 mi SSE 5.8 mph - N/A   Clear
2:35 AM 75.2 °F 64.4 °F 69% 29.90 in 10.0 mi SE 4.6 mph - N/A   Clear
2:55 AM 73.4 °F 64.4 °F 73% 29.90 in 10.0 mi ENE 5.8 mph - N/A   Clear
3:15 AM 73.4 °F 64.4 °F 73% 29.90 in 10.0 mi ESE 6.9 mph - N/A   Clear
3:35 AM 73.4 °F 64.4 °F 73% 29.91 in 10.0 mi ENE 6.9 mph - N/A   Clear
3:55 AM 73.4 °F 64.4 °F 73% 29.92 in 10.0 mi East 6.9 mph - N/A   Mostly Cloudy
4:15 AM 73.4 °F 64.4 °F 73% 29.92 in 10.0 mi East 6.9 mph - N/A   Scattered Clouds
4:36 AM 73.4 °F 64.4 °F 73% 29.92 in 10.0 mi East 9.2 mph - N/A   Clear
4:55 AM 73.4 °F 64.4 °F 73% 29.92 in 10.0 mi East 9.2 mph - N/A   Clear
5:15 AM 73.4 °F 64.4 °F 73% 29.92 in 10.0 mi ESE 10.4 mph - N/A   Scattered Clouds
5:36 AM 73.4 °F 64.4 °F 73% 29.93 in 10.0 mi ESE 12.7 mph - N/A   Overcast
5:55 AM 73.4 °F 64.4 °F 73% 29.93 in 10.0 mi ESE 13.8 mph - N/A   Overcast
6:15 AM 73.4 °F 64.4 °F 73% 29.93 in 10.0 mi SE 12.7 mph - N/A   Overcast
6:35 AM 73.4 °F 64.4 °F 73% 29.94 in 10.0 mi SE 11.5 mph - N/A   Overcast
6:55 AM 73.4 °F 64.4 °F 73% 29.94 in 10.0 mi SE 12.7 mph - N/A   Overcast
7:15 AM 73.4 °F 64.4 °F 73% 29.96 in 10.0 mi SE 15.0 mph - N/A   Overcast
7:35 AM 73.4 °F 64.4 °F 73% 29.96 in 10.0 mi SE 16.1 mph - N/A   Overcast
7:55 AM 71.6 °F 64.4 °F 78% 29.96 in 10.0 mi ESE 16.1 mph - N/A   Overcast
8:15 AM 71.6 °F 62.6 °F 73% 29.97 in 10.0 mi SE 17.3 mph 20.7 mph N/A   Overcast
8:35 AM 73.4 °F 62.6 °F 69% 29.97 in 10.0 mi SE 18.4 mph 23.0 mph N/A   Mostly Cloudy
8:55 AM 71.6 °F 62.6 °F 73% 29.98 in 10.0 mi SE 19.6 mph 25.3 mph N/A   Overcast
9:16 AM 73.4 °F 62.6 °F 69% 29.97 in 10.0 mi SE 13.8 mph 20.7 mph N/A   Mostly Cloudy
9:35 AM 73.4 °F 64.4 °F 73% 29.97 in 10.0 mi SE 17.3 mph 20.7 mph N/A   Mostly Cloudy
9:55 AM 73.4 °F 64.4 °F 73% 29.97 in 10.0 mi SE 15.0 mph 20.7 mph N/A   Overcast
10:15 AM 73.4 °F 64.4 °F 73% 29.98 in 10.0 mi SE 15.0 mph 25.3 mph N/A   Overcast
10:35 AM 73.4 °F 64.4 °F 73% 29.99 in 10.0 mi SSE 16.1 mph 21.9 mph N/A   Overcast
10:56 AM 73.4 °F 62.6 °F 69% 30.00 in 10.0 mi SSE 10.4 mph 18.4 mph N/A   Overcast
11:15 AM 73.4 °F 62.6 °F 69% 30.01 in 10.0 mi SSE 12.7 mph 20.7 mph N/A Thunderstorm Overcast
11:35 AM 73.4 °F 62.6 °F 69% 30.00 in 10.0 mi SSE 9.2 mph 17.3 mph N/A   Overcast
11:56 AM 73.4 °F 62.6 °F 69% 30.00 in 10.0 mi SSE 10.4 mph 18.4 mph N/A   Overcast
12:15 PM 73.4 °F 62.6 °F 69% 29.99 in 10.0 mi SSE 12.7 mph 17.3 mph N/A   Overcast
12:35 PM 73.4 °F 62.6 °F 69% 29.95 in 10.0 mi ESE 15.0 mph 19.6 mph N/A   Scattered Clouds
12:56 PM 73.4 °F 62.6 °F 69% 29.91 in 10.0 mi ESE 16.1 mph - N/A   Clear
1:15 PM 73.4 °F 64.4 °F 73% 29.93 in 10.0 mi SE 11.5 mph 18.4 mph N/A Rain Light Rain
1:35 PM 73.4 °F 64.4 °F 73% 30.00 in 10.0 mi WSW 13.8 mph 20.7 mph N/A Rain Light Rain
1:55 PM 71.6 °F 64.4 °F 78% 30.01 in 10.0 mi SSW 4.6 mph 16.1 mph N/A   Mostly Cloudy
2:15 PM 73.4 °F 64.4 °F 73% 30.01 in 10.0 mi SW 3.5 mph - N/A   Scattered Clouds
2:36 PM 73.4 °F 64.4 °F 73% 30.01 in 10.0 mi Calm Calm - N/A Rain Light Rain
2:55 PM 73.4 °F 64.4 °F 73% 30.01 in 10.0 mi SE 4.6 mph - N/A   Scattered Clouds
3:15 PM 73.4 °F 64.4 °F 73% 30.01 in 10.0 mi ESE 4.6 mph - N/A   Clear
3:35 PM 75.2 °F 64.4 °F 69% 30.01 in 10.0 mi East 6.9 mph - N/A   Clear
3:55 PM 75.2 °F 64.4 °F 69% 30.00 in 10.0 mi East 5.8 mph - N/A   Scattered Clouds
4:15 PM 75.2 °F 64.4 °F 69% 30.00 in 10.0 mi ESE 9.2 mph - N/A   Scattered Clouds
4:35 PM 75.2 °F 64.4 °F 69% 30.00 in 10.0 mi East 9.2 mph - N/A   Scattered Clouds
4:55 PM 77.0 °F 64.4 °F 65% 30.00 in 10.0 mi East 10.4 mph - N/A   Scattered Clouds
5:15 PM 77.0 °F 64.4 °F 65% 30.00 in 10.0 mi East 10.4 mph - N/A   Scattered Clouds
5:35 PM 77.0 °F 64.4 °F 65% 30.00 in 10.0 mi East 11.5 mph - N/A   Mostly Cloudy
5:55 PM 77.0 °F 64.4 °F 65% 30.01 in 10.0 mi East 11.5 mph - N/A   Mostly Cloudy
6:15 PM 77.0 °F 64.4 °F 65% 30.00 in 10.0 mi East 10.4 mph 16.1 mph N/A   Mostly Cloudy
6:35 PM 77.0 °F 64.4 °F 65% 30.00 in 10.0 mi ESE 11.5 mph - N/A   Scattered Clouds
6:55 PM 78.8 °F 66.2 °F 65% 29.99 in 10.0 mi ESE 12.7 mph - N/A   Scattered Clouds
7:15 PM 78.8 °F 66.2 °F 65% 29.99 in 10.0 mi ESE 12.7 mph - N/A   Clear
7:35 PM 78.8 °F 66.2 °F 65% 29.99 in 10.0 mi ESE 9.2 mph - N/A   Clear
7:55 PM 78.8 °F 66.2 °F 65% 29.98 in 10.0 mi SE 11.5 mph - N/A   Clear
8:15 PM 78.8 °F 66.2 °F 65% 29.99 in 10.0 mi ESE 10.4 mph - N/A   Scattered Clouds
8:35 PM 78.8 °F 64.4 °F 61% 29.98 in 10.0 mi ESE 11.5 mph - N/A   Mostly Cloudy
8:55 PM 77.0 °F 62.6 °F 61% 29.98 in 10.0 mi SE 10.4 mph - N/A   Mostly Cloudy
9:15 PM 77.0 °F 62.6 °F 61% 29.98 in 10.0 mi SE 12.7 mph 17.3 mph N/A   Overcast
9:35 PM 77.0 °F 62.6 °F 61% 29.99 in 10.0 mi SE 9.2 mph - N/A   Overcast
9:55 PM 77.0 °F 64.4 °F 65% 30.01 in 10.0 mi ESE 9.2 mph - N/A   Overcast
10:15 PM 75.2 °F 64.4 °F 69% 30.02 in 10.0 mi ESE 10.4 mph - N/A   Overcast
10:35 PM 75.2 °F 64.4 °F 69% 30.02 in 10.0 mi ESE 10.4 mph - N/A   Overcast
10:55 PM 75.2 °F 64.4 °F 69% 30.02 in 10.0 mi ESE 11.5 mph - N/A   Overcast
11:15 PM 75.2 °F 62.6 °F 65% 30.04 in 10.0 mi SE 11.5 mph - N/A   Overcast
11:36 PM 75.2 °F 62.6 °F 65% 30.04 in 10.0 mi SE 11.5 mph - N/A   Overcast
11:55 PM 73.4 °F 62.6 °F 69% 30.05 in 10.0 mi SE 10.4 mph - N/A   Mostly Cloudy